カタログに戻る

STARLINK-3207

運用中通信VLEO
NORAD 49756·PAYLOAD·🇺🇸 United States

打ち上げ Dec 2, 2021 から Cape Canaveral Space Force Station

Loading…

次のパス (今後24時間)

TLE

最新Source: CelesTrak SupGP

元期: Sep 14, 2026, 20:31 UTC

1 49756C 21115AJ  26257.85534722 -.00019646  00000+0 -58050-3 0  2574
2 49756  53.1591 355.8810 0001192  74.6733 259.3452 15.34397871    19

AllMySatでSTARLINK-3207をリアルタイム追跡

Download on the App Store